owner,sensor,date,latitude,longitude,vertical_datum,sea_water_practical_salinity,qcFlag 
ENP,ioos.station.NOAA.NDBC:MUKF1:1,2016-03-01T00:00:00Z,25.1060,-80.9420,1.5,32.17,1111122 
ENP,ioos.station.NOAA.NDBC:MUKF1:1,2016-03-01T01:00:00Z,25.1060,-80.9420,1.5,32.17,1111122 
ENP,ioos.station.NOAA.NDBC:MUKF1:1,2016-03-01T02:00:00Z,25.1060,-80.9420,1.5,32.18,1111122 
ENP,ioos.station.NOAA.NDBC:MUKF1:1,2016-03-01T05:00:00Z,25.1060,-80.9420,1.5,32.22,1111122 
ENP,ioos.station.NOAA.NDBC:MUKF1:1,2016-03-01T10:00:00Z,25.1060,-80.9420,1.5,32.27,1111122 
ENP,ioos.station.NOAA.NDBC:MUKF1:1,2016-03-01T11:00:00Z,25.1060,-80.9420,1.5,32.22,1111122 
ENP,ioos.station.NOAA.NDBC:MUKF1:1,2016-03-01T12:00:00Z,25.1060,-80.9420,1.5,32.24,1111122 
ENP,ioos.station.NOAA.NDBC:MUKF1:1,2016-03-01T13:00:00Z,25.1060,-80.9420,1.5,32.16,1111122 
ENP,ioos.station.NOAA.NDBC:MUKF1:1,2016-03-01T14:00:00Z,25.1060,-80.9420,1.5,32.13,1111122 
ENP,ioos.station.NOAA.NDBC:MUKF1:1,2016-03-01T16:00:00Z,25.1060,-80.9420,1.5,32.13,1111122 
ENP,ioos.station.NOAA.NDBC:MUKF1:1,2016-03-01T17:00:00Z,25.1060,-80.9420,1.5,32.13,1111122 
ENP,ioos.station.NOAA.NDBC:MUKF1:1,2016-03-01T18:00:00Z,25.1060,-80.9420,1.5,32.2,1111122 
ENP,ioos.station.NOAA.NDBC:MUKF1:1,2016-03-01T20:00:00Z,25.1060,-80.9420,1.5,32.35,1111122 
ENP,ioos.station.NOAA.NDBC:MUKF1:1,2016-03-01T21:00:00Z,25.1060,-80.9420,1.5,32.31,1111122 
ENP,ioos.station.NOAA.NDBC:MUKF1:1,2016-03-01T22:00:00Z,25.1060,-80.9420,1.5,32.18,1111122 
ENP,ioos.station.NOAA.NDBC:MUKF1:1,2016-03-01T23:00:00Z,25.1060,-80.9420,1.5,32.18,1111122 
ENP,ioos.station.NOAA.NDBC:MUKF1:1,2016-03-02T00:00:00Z,25.1060,-80.9420,1.5,32.06,1111122 
ENP,ioos.station.NOAA.NDBC:MUKF1:1,2016-03-02T01:00:00Z,25.1060,-80.9420,1.5,31.82,1111122 
ENP,ioos.station.NOAA.NDBC:MUKF1:1,2016-03-02T02:00:00Z,25.1060,-80.9420,1.5,31.79,1111122 
ENP,ioos.station.NOAA.NDBC:MUKF1:1,2016-03-02T04:00:00Z,25.1060,-80.9420,1.5,32.0,1111122 
ENP,ioos.station.NOAA.NDBC:MUKF1:1,2016-03-02T05:00:00Z,25.1060,-80.9420,1.5,32.09,1111122 
ENP,ioos.station.NOAA.NDBC:MUKF1:1,2016-03-02T08:00:00Z,25.1060,-80.9420,1.5,32.18,1111122 
ENP,ioos.station.NOAA.NDBC:MUKF1:1,2016-03-02T09:00:00Z,25.1060,-80.9420,1.5,32.19,1111122 
ENP,ioos.station.NOAA.NDBC:MUKF1:1,2016-03-02T10:00:00Z,25.1060,-80.9420,1.5,32.23,1111122 
ENP,ioos.station.NOAA.NDBC:MUKF1:1,2016-03-02T12:00:00Z,25.1060,-80.9420,1.5,32.1,1111122 
ENP,ioos.station.NOAA.NDBC:MUKF1:1,2016-03-02T13:00:00Z,25.1060,-80.9420,1.5,32.2,1111122 
ENP,ioos.station.NOAA.NDBC:MUKF1:1,2016-03-02T14:00:00Z,25.1060,-80.9420,1.5,32.06,1111122 
ENP,ioos.station.NOAA.NDBC:MUKF1:1,2016-03-02T15:00:00Z,25.1060,-80.9420,1.5,31.98,1111122 
ENP,ioos.station.NOAA.NDBC:MUKF1:1,2016-03-02T16:00:00Z,25.1060,-80.9420,1.5,31.94,1111122 
ENP,ioos.station.NOAA.NDBC:MUKF1:1,2016-03-02T17:00:00Z,25.1060,-80.9420,1.5,31.98,1111122 
ENP,ioos.station.NOAA.NDBC:MUKF1:1,2016-03-02T18:00:00Z,25.1060,-80.9420,1.5,32.04,1111122 
ENP,ioos.station.NOAA.NDBC:MUKF1:1,2016-03-02T19:00:00Z,25.1060,-80.9420,1.5,32.14,1111122 
ENP,ioos.station.NOAA.NDBC:MUKF1:1,2016-03-02T20:00:00Z,25.1060,-80.9420,1.5,32.22,1111122 
ENP,ioos.station.NOAA.NDBC:MUKF1:1,2016-03-02T21:00:00Z,25.1060,-80.9420,1.5,32.18,1111122 
ENP,ioos.station.NOAA.NDBC:MUKF1:1,2016-03-02T22:00:00Z,25.1060,-80.9420,1.5,32.26,1111122 
ENP,ioos.station.NOAA.NDBC:MUKF1:1,2016-03-02T23:00:00Z,25.1060,-80.9420,1.5,32.19,1111122 
ENP,ioos.station.NOAA.NDBC:MUKF1:1,2016-03-03T00:00:00Z,25.1060,-80.9420,1.5,32.01,1111122 
ENP,ioos.station.NOAA.NDBC:MUKF1:1,2016-03-03T01:00:00Z,25.1060,-80.9420,1.5,31.85,1111122 
ENP,ioos.station.NOAA.NDBC:MUKF1:1,2016-03-03T02:00:00Z,25.1060,-80.9420,1.5,31.69,1111122 
ENP,ioos.station.NOAA.NDBC:MUKF1:1,2016-03-03T05:00:00Z,25.1060,-80.9420,1.5,31.71,1111122 
ENP,ioos.station.NOAA.NDBC:MUKF1:1,2016-03-03T06:00:00Z,25.1060,-80.9420,1.5,31.8,1111122 
ENP,ioos.station.NOAA.NDBC:MUKF1:1,2016-03-03T08:00:00Z,25.1060,-80.9420,1.5,31.95,1111122 
ENP,ioos.station.NOAA.NDBC:MUKF1:1,2016-03-03T09:00:00Z,25.1060,-80.9420,1.5,31.99,1111122 
ENP,ioos.station.NOAA.NDBC:MUKF1:1,2016-03-03T10:00:00Z,25.1060,-80.9420,1.5,32.03,1111122 
ENP,ioos.station.NOAA.NDBC:MUKF1:1,2016-03-03T11:00:00Z,25.1060,-80.9420,1.5,32.07,1111122 
ENP,ioos.station.NOAA.NDBC:MUKF1:1,2016-03-03T12:00:00Z,25.1060,-80.9420,1.5,32.12,1111122 
ENP,ioos.station.NOAA.NDBC:MUKF1:1,2016-03-03T13:00:00Z,25.1060,-80.9420,1.5,32.06,1111122 
ENP,ioos.station.NOAA.NDBC:MUKF1:1,2016-03-03T14:00:00Z,25.1060,-80.9420,1.5,32.26,1111122 
ENP,ioos.station.NOAA.NDBC:MUKF1:1,2016-03-03T15:00:00Z,25.1060,-80.9420,1.5,32.07,1111122 
ENP,ioos.station.NOAA.NDBC:MUKF1:1,2016-03-03T16:00:00Z,25.1060,-80.9420,1.5,31.88,1111122 
ENP,ioos.station.NOAA.NDBC:MUKF1:1,2016-03-03T17:00:00Z,25.1060,-80.9420,1.5,31.77,1111122 
ENP,ioos.station.NOAA.NDBC:MUKF1:1,2016-03-03T18:00:00Z,25.1060,-80.9420,1.5,31.85,1111122 
ENP,ioos.station.NOAA.NDBC:MUKF1:1,2016-03-03T19:00:00Z,25.1060,-80.9420,1.5,31.85,1111122 
ENP,ioos.station.NOAA.NDBC:MUKF1:1,2016-03-03T20:00:00Z,25.1060,-80.9420,1.5,31.97,1111122 
ENP,ioos.station.NOAA.NDBC:MUKF1:1,2016-03-03T21:00:00Z,25.1060,-80.9420,1.5,32.03,1111122 
ENP,ioos.station.NOAA.NDBC:MUKF1:1,2016-03-03T22:00:00Z,25.1060,-80.9420,1.5,32.11,1111122 
ENP,ioos.station.NOAA.NDBC:MUKF1:1,2016-03-03T23:00:00Z,25.1060,-80.9420,1.5,32.17,1111122 
ENP,ioos.station.NOAA.NDBC:MUKF1:1,2016-03-04T00:00:00Z,25.1060,-80.9420,1.5,32.11,1111122 
ENP,ioos.station.NOAA.NDBC:MUKF1:1,2016-03-04T01:00:00Z,25.1060,-80.9420,1.5,31.94,1111122 
ENP,ioos.station.NOAA.NDBC:MUKF1:1,2016-03-04T02:00:00Z,25.1060,-80.9420,1.5,31.79,1111122 
ENP,ioos.station.NOAA.NDBC:MUKF1:1,2016-03-04T05:00:00Z,25.1060,-80.9420,1.5,31.66,1111122 
ENP,ioos.station.NOAA.NDBC:MUKF1:1,2016-03-04T08:00:00Z,25.1060,-80.9420,1.5,31.78,1111122 
ENP,ioos.station.NOAA.NDBC:MUKF1:1,2016-03-04T09:00:00Z,25.1060,-80.9420,1.5,31.82,1111122 
ENP,ioos.station.NOAA.NDBC:MUKF1:1,2016-03-04T10:00:00Z,25.1060,-80.9420,1.5,31.82,1111122 
ENP,ioos.station.NOAA.NDBC:MUKF1:1,2016-03-04T11:00:00Z,25.1060,-80.9420,1.5,31.87,1111122 
ENP,ioos.station.NOAA.NDBC:MUKF1:1,2016-03-04T12:00:00Z,25.1060,-80.9420,1.5,31.89,1111122 
ENP,ioos.station.NOAA.NDBC:MUKF1:1,2016-03-04T13:00:00Z,25.1060,-80.9420,1.5,31.98,1111122 
ENP,ioos.station.NOAA.NDBC:MUKF1:1,2016-03-04T14:00:00Z,25.1060,-80.9420,1.5,31.82,1111122 
ENP,ioos.station.NOAA.NDBC:MUKF1:1,2016-03-04T15:00:00Z,25.1060,-80.9420,1.5,32.01,1111122 
ENP,ioos.station.NOAA.NDBC:MUKF1:1,2016-03-04T16:00:00Z,25.1060,-80.9420,1.5,31.79,1111122 
ENP,ioos.station.NOAA.NDBC:MUKF1:1,2016-03-04T17:00:00Z,25.1060,-80.9420,1.5,31.67,1111122 
ENP,ioos.station.NOAA.NDBC:MUKF1:1,2016-03-04T18:00:00Z,25.1060,-80.9420,1.5,31.63,1111122 
ENP,ioos.station.NOAA.NDBC:MUKF1:1,2016-03-04T19:00:00Z,25.1060,-80.9420,1.5,31.63,1111122 
ENP,ioos.station.NOAA.NDBC:MUKF1:1,2016-03-04T20:00:00Z,25.1060,-80.9420,1.5,31.69,1111122 
ENP,ioos.station.NOAA.NDBC:MUKF1:1,2016-03-04T21:00:00Z,25.1060,-80.9420,1.5,31.76,1111122 
ENP,ioos.station.NOAA.NDBC:MUKF1:1,2016-03-04T22:00:00Z,25.1060,-80.9420,1.5,31.85,1111122 
ENP,ioos.station.NOAA.NDBC:MUKF1:1,2016-03-04T23:00:00Z,25.1060,-80.9420,1.5,31.93,1111122 
ENP,ioos.station.NOAA.NDBC:MUKF1:1,2016-03-05T00:00:00Z,25.1060,-80.9420,1.5,31.93,1111122 
ENP,ioos.station.NOAA.NDBC:MUKF1:1,2016-03-05T01:00:00Z,25.1060,-80.9420,1.5,31.86,1111122 
ENP,ioos.station.NOAA.NDBC:MUKF1:1,2016-03-05T02:00:00Z,25.1060,-80.9420,1.5,31.82,1111122 
ENP,ioos.station.NOAA.NDBC:MUKF1:1,2016-03-05T05:00:00Z,25.1060,-80.9420,1.5,31.45,1111122 
ENP,ioos.station.NOAA.NDBC:MUKF1:1,2016-03-05T08:00:00Z,25.1060,-80.9420,1.5,31.5,1111122 
ENP,ioos.station.NOAA.NDBC:MUKF1:1,2016-03-05T09:00:00Z,25.1060,-80.9420,1.5,31.63,1111122 
ENP,ioos.station.NOAA.NDBC:MUKF1:1,2016-03-05T10:00:00Z,25.1060,-80.9420,1.5,31.64,1111122 
ENP,ioos.station.NOAA.NDBC:MUKF1:1,2016-03-05T11:00:00Z,25.1060,-80.9420,1.5,31.7,1111122 
ENP,ioos.station.NOAA.NDBC:MUKF1:1,2016-03-05T12:00:00Z,25.1060,-80.9420,1.5,31.74,1111122 
ENP,ioos.station.NOAA.NDBC:MUKF1:1,2016-03-05T13:00:00Z,25.1060,-80.9420,1.5,31.74,1111122 
ENP,ioos.station.NOAA.NDBC:MUKF1:1,2016-03-05T14:00:00Z,25.1060,-80.9420,1.5,31.79,1111122 
ENP,ioos.station.NOAA.NDBC:MUKF1:1,2016-03-05T15:00:00Z,25.1060,-80.9420,1.5,31.67,1111122 
ENP,ioos.station.NOAA.NDBC:MUKF1:1,2016-03-05T16:00:00Z,25.1060,-80.9420,1.5,31.96,1111122 
ENP,ioos.station.NOAA.NDBC:MUKF1:1,2016-03-05T17:00:00Z,25.1060,-80.9420,1.5,31.67,1111122 
ENP,ioos.station.NOAA.NDBC:MUKF1:1,2016-03-05T18:00:00Z,25.1060,-80.9420,1.5,31.42,1111122 
ENP,ioos.station.NOAA.NDBC:MUKF1:1,2016-03-05T19:00:00Z,25.1060,-80.9420,1.5,31.34,1111122 
ENP,ioos.station.NOAA.NDBC:MUKF1:1,2016-03-05T20:00:00Z,25.1060,-80.9420,1.5,31.37,1111122 
ENP,ioos.station.NOAA.NDBC:MUKF1:1,2016-03-05T21:00:00Z,25.1060,-80.9420,1.5,31.39,1111122 
ENP,ioos.station.NOAA.NDBC:MUKF1:1,2016-03-05T22:00:00Z,25.1060,-80.9420,1.5,31.48,1111122 
ENP,ioos.station.NOAA.NDBC:MUKF1:1,2016-03-05T23:00:00Z,25.1060,-80.9420,1.5,31.59,1111122 
ENP,ioos.station.NOAA.NDBC:MUKF1:1,2016-03-06T00:00:00Z,25.1060,-80.9420,1.5,31.74,1111122 
ENP,ioos.station.NOAA.NDBC:MUKF1:1,2016-03-06T01:00:00Z,25.1060,-80.9420,1.5,31.72,1111122 
ENP,ioos.station.NOAA.NDBC:MUKF1:1,2016-03-06T02:00:00Z,25.1060,-80.9420,1.5,31.58,1111122 
ENP,ioos.station.NOAA.NDBC:MUKF1:1,2016-03-06T05:00:00Z,25.1060,-80.9420,1.5,31.16,1111122 
ENP,ioos.station.NOAA.NDBC:MUKF1:1,2016-03-06T08:00:00Z,25.1060,-80.9420,1.5,31.13,1111122 
ENP,ioos.station.NOAA.NDBC:MUKF1:1,2016-03-06T09:00:00Z,25.1060,-80.9420,1.5,31.1,1111122 
ENP,ioos.station.NOAA.NDBC:MUKF1:1,2016-03-06T10:00:00Z,25.1060,-80.9420,1.5,31.25,1111122 
ENP,ioos.station.NOAA.NDBC:MUKF1:1,2016-03-06T12:00:00Z,25.1060,-80.9420,1.5,31.46,1111122 
ENP,ioos.station.NOAA.NDBC:MUKF1:1,2016-03-06T13:00:00Z,25.1060,-80.9420,1.5,31.46,1111122 
ENP,ioos.station.NOAA.NDBC:MUKF1:1,2016-03-06T14:00:00Z,25.1060,-80.9420,1.5,31.46,1111122 
ENP,ioos.station.NOAA.NDBC:MUKF1:1,2016-03-06T15:00:00Z,25.1060,-80.9420,1.5,31.42,1111122 
ENP,ioos.station.NOAA.NDBC:MUKF1:1,2016-03-06T16:00:00Z,25.1060,-80.9420,1.5,31.47,1111122 
ENP,ioos.station.NOAA.NDBC:MUKF1:1,2016-03-06T17:00:00Z,25.1060,-80.9420,1.5,31.77,1111122 
ENP,ioos.station.NOAA.NDBC:MUKF1:1,2016-03-06T18:00:00Z,25.1060,-80.9420,1.5,31.74,1111122 
ENP,ioos.station.NOAA.NDBC:MUKF1:1,2016-03-06T19:00:00Z,25.1060,-80.9420,1.5,31.48,1111122 
ENP,ioos.station.NOAA.NDBC:MUKF1:1,2016-03-06T20:00:00Z,25.1060,-80.9420,1.5,31.33,1111122 
ENP,ioos.station.NOAA.NDBC:MUKF1:1,2016-03-06T21:00:00Z,25.1060,-80.9420,1.5,31.37,1111122 
ENP,ioos.station.NOAA.NDBC:MUKF1:1,2016-03-06T22:00:00Z,25.1060,-80.9420,1.5,31.79,1111122 
ENP,ioos.station.NOAA.NDBC:MUKF1:1,2016-03-06T23:00:00Z,25.1060,-80.9420,1.5,31.87,1111122 
ENP,ioos.station.NOAA.NDBC:MUKF1:1,2016-03-07T00:00:00Z,25.1060,-80.9420,1.5,31.87,1111122 
ENP,ioos.station.NOAA.NDBC:MUKF1:1,2016-03-07T01:00:00Z,25.1060,-80.9420,1.5,31.85,1111122 
ENP,ioos.station.NOAA.NDBC:MUKF1:1,2016-03-07T02:00:00Z,25.1060,-80.9420,1.5,31.85,1111122 
ENP,ioos.station.NOAA.NDBC:MUKF1:1,2016-03-07T03:00:00Z,25.1060,-80.9420,1.5,31.86,1111122 
ENP,ioos.station.NOAA.NDBC:MUKF1:1,2016-03-07T05:00:00Z,25.1060,-80.9420,1.5,31.39,1111122 
ENP,ioos.station.NOAA.NDBC:MUKF1:1,2016-03-07T06:00:00Z,25.1060,-80.9420,1.5,31.21,1111122 
ENP,ioos.station.NOAA.NDBC:MUKF1:1,2016-03-07T08:00:00Z,25.1060,-80.9420,1.5,31.09,1111122 
ENP,ioos.station.NOAA.NDBC:MUKF1:1,2016-03-07T09:00:00Z,25.1060,-80.9420,1.5,31.21,1111122 
ENP,ioos.station.NOAA.NDBC:MUKF1:1,2016-03-07T10:00:00Z,25.1060,-80.9420,1.5,31.44,1111122 
ENP,ioos.station.NOAA.NDBC:MUKF1:1,2016-03-07T11:00:00Z,25.1060,-80.9420,1.5,31.46,1111122 
ENP,ioos.station.NOAA.NDBC:MUKF1:1,2016-03-07T12:00:00Z,25.1060,-80.9420,1.5,31.47,1111122 
ENP,ioos.station.NOAA.NDBC:MUKF1:1,2016-03-07T14:00:00Z,25.1060,-80.9420,1.5,31.57,1111122 
ENP,ioos.station.NOAA.NDBC:MUKF1:1,2016-03-07T15:00:00Z,25.1060,-80.9420,1.5,31.55,1111122 
ENP,ioos.station.NOAA.NDBC:MUKF1:1,2016-03-07T16:00:00Z,25.1060,-80.9420,1.5,31.51,1111122 
ENP,ioos.station.NOAA.NDBC:MUKF1:1,2016-03-07T17:00:00Z,25.1060,-80.9420,1.5,31.58,1111122 
ENP,ioos.station.NOAA.NDBC:MUKF1:1,2016-03-07T18:00:00Z,25.1060,-80.9420,1.5,31.47,1111122 
ENP,ioos.station.NOAA.NDBC:MUKF1:1,2016-03-07T19:00:00Z,25.1060,-80.9420,1.5,31.33,1111122 
ENP,ioos.station.NOAA.NDBC:MUKF1:1,2016-03-07T20:00:00Z,25.1060,-80.9420,1.5,31.21,1111122 
ENP,ioos.station.NOAA.NDBC:MUKF1:1,2016-03-07T21:00:00Z,25.1060,-80.9420,1.5,31.35,1111122 
ENP,ioos.station.NOAA.NDBC:MUKF1:1,2016-03-08T10:00:00Z,25.1060,-80.9420,1.5,31.33,1111122 
ENP,ioos.station.NOAA.NDBC:MUKF1:1,2016-03-08T11:00:00Z,25.1060,-80.9420,1.5,31.45,1111122 
ENP,ioos.station.NOAA.NDBC:MUKF1:1,2016-03-08T12:00:00Z,25.1060,-80.9420,1.5,31.43,1111122 
ENP,ioos.station.NOAA.NDBC:MUKF1:1,2016-03-08T13:00:00Z,25.1060,-80.9420,1.5,31.44,1111122 
ENP,ioos.station.NOAA.NDBC:MUKF1:1,2016-03-08T14:00:00Z,25.1060,-80.9420,1.5,31.59,1111122 
ENP,ioos.station.NOAA.NDBC:MUKF1:1,2016-03-08T15:00:00Z,25.1060,-80.9420,1.5,31.68,1111122 
ENP,ioos.station.NOAA.NDBC:MUKF1:1,2016-03-08T16:00:00Z,25.1060,-80.9420,1.5,31.74,1111122 
ENP,ioos.station.NOAA.NDBC:MUKF1:1,2016-03-08T17:00:00Z,25.1060,-80.9420,1.5,31.5,1111122 
ENP,ioos.station.NOAA.NDBC:MUKF1:1,2016-03-08T18:00:00Z,25.1060,-80.9420,1.5,31.67,1111122 
ENP,ioos.station.NOAA.NDBC:MUKF1:1,2016-03-08T19:00:00Z,25.1060,-80.9420,1.5,31.45,1111122 
ENP,ioos.station.NOAA.NDBC:MUKF1:1,2016-03-08T20:00:00Z,25.1060,-80.9420,1.5,31.33,1111122 
ENP,ioos.station.NOAA.NDBC:MUKF1:1,2016-03-08T21:00:00Z,25.1060,-80.9420,1.5,31.19,1111122 
ENP,ioos.station.NOAA.NDBC:MUKF1:1,2016-03-08T22:00:00Z,25.1060,-80.9420,1.5,31.48,1111122 
ENP,ioos.station.NOAA.NDBC:MUKF1:1,2016-03-08T23:00:00Z,25.1060,-80.9420,1.5,31.85,1111122 
ENP,ioos.station.NOAA.NDBC:MUKF1:1,2016-03-09T00:00:00Z,25.1060,-80.9420,1.5,31.98,1111122 
ENP,ioos.station.NOAA.NDBC:MUKF1:1,2016-03-09T01:00:00Z,25.1060,-80.9420,1.5,32.03,1111122 
ENP,ioos.station.NOAA.NDBC:MUKF1:1,2016-03-09T02:00:00Z,25.1060,-80.9420,1.5,32.09,1111122 
ENP,ioos.station.NOAA.NDBC:MUKF1:1,2016-03-09T07:00:00Z,25.1060,-80.9420,1.5,31.47,1111122 
ENP,ioos.station.NOAA.NDBC:MUKF1:1,2016-03-09T08:00:00Z,25.1060,-80.9420,1.5,30.93,1111122 
ENP,ioos.station.NOAA.NDBC:MUKF1:1,2016-03-09T09:00:00Z,25.1060,-80.9420,1.5,30.57,1111122 
ENP,ioos.station.NOAA.NDBC:MUKF1:1,2016-03-09T10:00:00Z,25.1060,-80.9420,1.5,30.96,1111122 
ENP,ioos.station.NOAA.NDBC:MUKF1:1,2016-03-09T11:00:00Z,25.1060,-80.9420,1.5,31.31,1111122 
ENP,ioos.station.NOAA.NDBC:MUKF1:1,2016-03-09T12:00:00Z,25.1060,-80.9420,1.5,31.5,1111122 
ENP,ioos.station.NOAA.NDBC:MUKF1:1,2016-03-09T13:00:00Z,25.1060,-80.9420,1.5,31.45,1111122 
ENP,ioos.station.NOAA.NDBC:MUKF1:1,2016-03-09T14:00:00Z,25.1060,-80.9420,1.5,31.5,1111122 
ENP,ioos.station.NOAA.NDBC:MUKF1:1,2016-03-09T15:00:00Z,25.1060,-80.9420,1.5,31.6,1111122 
ENP,ioos.station.NOAA.NDBC:MUKF1:1,2016-03-09T16:00:00Z,25.1060,-80.9420,1.5,31.79,1111122 
ENP,ioos.station.NOAA.NDBC:MUKF1:1,2016-03-09T17:00:00Z,25.1060,-80.9420,1.5,31.71,1111122 
ENP,ioos.station.NOAA.NDBC:MUKF1:1,2016-03-09T18:00:00Z,25.1060,-80.9420,1.5,31.83,1111122 
ENP,ioos.station.NOAA.NDBC:MUKF1:1,2016-03-09T19:00:00Z,25.1060,-80.9420,1.5,31.61,1111122 
ENP,ioos.station.NOAA.NDBC:MUKF1:1,2016-03-09T20:00:00Z,25.1060,-80.9420,1.5,31.35,1111122 
ENP,ioos.station.NOAA.NDBC:MUKF1:1,2016-03-09T21:00:00Z,25.1060,-80.9420,1.5,31.03,1111122 
ENP,ioos.station.NOAA.NDBC:MUKF1:1,2016-03-09T22:00:00Z,25.1060,-80.9420,1.5,31.35,1111122 
ENP,ioos.station.NOAA.NDBC:MUKF1:1,2016-03-09T23:00:00Z,25.1060,-80.9420,1.5,31.69,1111122 
ENP,ioos.station.NOAA.NDBC:MUKF1:1,2016-03-10T00:00:00Z,25.1060,-80.9420,1.5,32.18,1111122 
ENP,ioos.station.NOAA.NDBC:MUKF1:1,2016-03-10T01:00:00Z,25.1060,-80.9420,1.5,32.33,1111122 
ENP,ioos.station.NOAA.NDBC:MUKF1:1,2016-03-10T02:00:00Z,25.1060,-80.9420,1.5,32.41,1111122 
ENP,ioos.station.NOAA.NDBC:MUKF1:1,2016-03-10T05:00:00Z,25.1060,-80.9420,1.5,32.45,1111122 
ENP,ioos.station.NOAA.NDBC:MUKF1:1,2016-03-10T08:00:00Z,25.1060,-80.9420,1.5,31.75,1111122 
ENP,ioos.station.NOAA.NDBC:MUKF1:1,2016-03-10T09:00:00Z,25.1060,-80.9420,1.5,31.26,1111122 
ENP,ioos.station.NOAA.NDBC:MUKF1:1,2016-03-10T10:00:00Z,25.1060,-80.9420,1.5,31.1,1111122 
ENP,ioos.station.NOAA.NDBC:MUKF1:1,2016-03-10T12:00:00Z,25.1060,-80.9420,1.5,31.5,1111122 
ENP,ioos.station.NOAA.NDBC:MUKF1:1,2016-03-10T13:00:00Z,25.1060,-80.9420,1.5,31.78,1111122 
ENP,ioos.station.NOAA.NDBC:MUKF1:1,2016-03-10T14:00:00Z,25.1060,-80.9420,1.5,32.05,1111122 
ENP,ioos.station.NOAA.NDBC:MUKF1:1,2016-03-10T15:00:00Z,25.1060,-80.9420,1.5,32.14,1111122 
ENP,ioos.station.NOAA.NDBC:MUKF1:1,2016-03-10T16:00:00Z,25.1060,-80.9420,1.5,32.16,1111122 
ENP,ioos.station.NOAA.NDBC:MUKF1:1,2016-03-10T17:00:00Z,25.1060,-80.9420,1.5,32.38,1111122 
ENP,ioos.station.NOAA.NDBC:MUKF1:1,2016-03-10T18:00:00Z,25.1060,-80.9420,1.5,32.34,1111122 
ENP,ioos.station.NOAA.NDBC:MUKF1:1,2016-03-10T19:00:00Z,25.1060,-80.9420,1.5,32.31,1111122 
ENP,ioos.station.NOAA.NDBC:MUKF1:1,2016-03-10T20:00:00Z,25.1060,-80.9420,1.5,32.06,1111122 
ENP,ioos.station.NOAA.NDBC:MUKF1:1,2016-03-10T21:00:00Z,25.1060,-80.9420,1.5,31.81,1111122 
ENP,ioos.station.NOAA.NDBC:MUKF1:1,2016-03-10T22:00:00Z,25.1060,-80.9420,1.5,31.79,1111122 
ENP,ioos.station.NOAA.NDBC:MUKF1:1,2016-03-10T23:00:00Z,25.1060,-80.9420,1.5,32.17,1111122 
ENP,ioos.station.NOAA.NDBC:MUKF1:1,2016-03-11T00:00:00Z,25.1060,-80.9420,1.5,32.59,1111122 
ENP,ioos.station.NOAA.NDBC:MUKF1:1,2016-03-11T01:00:00Z,25.1060,-80.9420,1.5,32.68,1111122 
ENP,ioos.station.NOAA.NDBC:MUKF1:1,2016-03-11T02:00:00Z,25.1060,-80.9420,1.5,32.94,1111122 
ENP,ioos.station.NOAA.NDBC:MUKF1:1,2016-03-11T05:00:00Z,25.1060,-80.9420,1.5,32.87,1111122 
ENP,ioos.station.NOAA.NDBC:MUKF1:1,2016-03-11T08:00:00Z,25.1060,-80.9420,1.5,33.13,1111122 
ENP,ioos.station.NOAA.NDBC:MUKF1:1,2016-03-11T09:00:00Z,25.1060,-80.9420,1.5,32.42,1111122 
ENP,ioos.station.NOAA.NDBC:MUKF1:1,2016-03-11T10:00:00Z,25.1060,-80.9420,1.5,31.61,1111122 
ENP,ioos.station.NOAA.NDBC:MUKF1:1,2016-03-11T11:00:00Z,25.1060,-80.9420,1.5,31.32,1111122 
ENP,ioos.station.NOAA.NDBC:MUKF1:1,2016-03-11T12:00:00Z,25.1060,-80.9420,1.5,31.72,1111122 
ENP,ioos.station.NOAA.NDBC:MUKF1:1,2016-03-11T13:00:00Z,25.1060,-80.9420,1.5,31.95,1111122 
ENP,ioos.station.NOAA.NDBC:MUKF1:1,2016-03-11T14:00:00Z,25.1060,-80.9420,1.5,32.22,1111122 
ENP,ioos.station.NOAA.NDBC:MUKF1:1,2016-03-11T15:00:00Z,25.1060,-80.9420,1.5,32.65,1111122 
ENP,ioos.station.NOAA.NDBC:MUKF1:1,2016-03-11T16:00:00Z,25.1060,-80.9420,1.5,32.91,1111122 
ENP,ioos.station.NOAA.NDBC:MUKF1:1,2016-03-11T17:00:00Z,25.1060,-80.9420,1.5,33.09,1111122 
ENP,ioos.station.NOAA.NDBC:MUKF1:1,2016-03-11T18:00:00Z,25.1060,-80.9420,1.5,33.15,1111122 
ENP,ioos.station.NOAA.NDBC:MUKF1:1,2016-03-11T19:00:00Z,25.1060,-80.9420,1.5,33.22,1111122 
ENP,ioos.station.NOAA.NDBC:MUKF1:1,2016-03-11T20:00:00Z,25.1060,-80.9420,1.5,33.61,1111122 
ENP,ioos.station.NOAA.NDBC:MUKF1:1,2016-03-11T21:00:00Z,25.1060,-80.9420,1.5,33.11,1111122 
ENP,ioos.station.NOAA.NDBC:MUKF1:1,2016-03-11T22:00:00Z,25.1060,-80.9420,1.5,32.45,1111122 
ENP,ioos.station.NOAA.NDBC:MUKF1:1,2016-03-11T23:00:00Z,25.1060,-80.9420,1.5,32.24,1111122 
ENP,ioos.station.NOAA.NDBC:MUKF1:1,2016-03-12T00:00:00Z,25.1060,-80.9420,1.5,32.36,1111122 
ENP,ioos.station.NOAA.NDBC:MUKF1:1,2016-03-12T01:00:00Z,25.1060,-80.9420,1.5,32.72,1111122 
ENP,ioos.station.NOAA.NDBC:MUKF1:1,2016-03-12T02:00:00Z,25.1060,-80.9420,1.5,33.3,1111122 
ENP,ioos.station.NOAA.NDBC:MUKF1:1,2016-03-12T05:00:00Z,25.1060,-80.9420,1.5,33.37,1111122 
ENP,ioos.station.NOAA.NDBC:MUKF1:1,2016-03-12T08:00:00Z,25.1060,-80.9420,1.5,33.69,1111122 
ENP,ioos.station.NOAA.NDBC:MUKF1:1,2016-03-12T09:00:00Z,25.1060,-80.9420,1.5,33.63,1111122 
ENP,ioos.station.NOAA.NDBC:MUKF1:1,2016-03-12T10:00:00Z,25.1060,-80.9420,1.5,32.76,1111122 
ENP,ioos.station.NOAA.NDBC:MUKF1:1,2016-03-12T11:00:00Z,25.1060,-80.9420,1.5,32.14,1111122 
ENP,ioos.station.NOAA.NDBC:MUKF1:1,2016-03-12T12:00:00Z,25.1060,-80.9420,1.5,32.13,1111122 
ENP,ioos.station.NOAA.NDBC:MUKF1:1,2016-03-12T13:00:00Z,25.1060,-80.9420,1.5,32.47,1111122 
ENP,ioos.station.NOAA.NDBC:MUKF1:1,2016-03-12T14:00:00Z,25.1060,-80.9420,1.5,32.93,1111122 
ENP,ioos.station.NOAA.NDBC:MUKF1:1,2016-03-12T15:00:00Z,25.1060,-80.9420,1.5,33.29,1111122 
ENP,ioos.station.NOAA.NDBC:MUKF1:1,2016-03-12T16:00:00Z,25.1060,-80.9420,1.5,33.68,1111122 
ENP,ioos.station.NOAA.NDBC:MUKF1:1,2016-03-12T17:00:00Z,25.1060,-80.9420,1.5,33.78,1111122 
ENP,ioos.station.NOAA.NDBC:MUKF1:1,2016-03-12T18:00:00Z,25.1060,-80.9420,1.5,33.77,1111122 
ENP,ioos.station.NOAA.NDBC:MUKF1:1,2016-03-12T19:00:00Z,25.1060,-80.9420,1.5,33.83,1111122 
ENP,ioos.station.NOAA.NDBC:MUKF1:1,2016-03-12T20:00:00Z,25.1060,-80.9420,1.5,33.8,1111122 
ENP,ioos.station.NOAA.NDBC:MUKF1:1,2016-03-12T21:00:00Z,25.1060,-80.9420,1.5,33.45,1111122 
ENP,ioos.station.NOAA.NDBC:MUKF1:1,2016-03-12T22:00:00Z,25.1060,-80.9420,1.5,32.63,1111122 
ENP,ioos.station.NOAA.NDBC:MUKF1:1,2016-03-12T23:00:00Z,25.1060,-80.9420,1.5,31.9,1111122 
ENP,ioos.station.NOAA.NDBC:MUKF1:1,2016-03-13T00:00:00Z,25.1060,-80.9420,1.5,32.01,1111122 
ENP,ioos.station.NOAA.NDBC:MUKF1:1,2016-03-13T01:00:00Z,25.1060,-80.9420,1.5,32.37,1111122 
ENP,ioos.station.NOAA.NDBC:MUKF1:1,2016-03-13T02:00:00Z,25.1060,-80.9420,1.5,32.68,1111122 
ENP,ioos.station.NOAA.NDBC:MUKF1:1,2016-03-13T04:00:00Z,25.1060,-80.9420,1.5,33.5,1111122 
ENP,ioos.station.NOAA.NDBC:MUKF1:1,2016-03-13T08:00:00Z,25.1060,-80.9420,1.5,33.64,1111122 
ENP,ioos.station.NOAA.NDBC:MUKF1:1,2016-03-13T09:00:00Z,25.1060,-80.9420,1.5,33.76,1111122 
ENP,ioos.station.NOAA.NDBC:MUKF1:1,2016-03-13T11:00:00Z,25.1060,-80.9420,1.5,33.55,1111122 
ENP,ioos.station.NOAA.NDBC:MUKF1:1,2016-03-13T12:00:00Z,25.1060,-80.9420,1.5,33.17,1111122 
ENP,ioos.station.NOAA.NDBC:MUKF1:1,2016-03-13T13:00:00Z,25.1060,-80.9420,1.5,33.05,1111122 
ENP,ioos.station.NOAA.NDBC:MUKF1:1,2016-03-13T14:00:00Z,25.1060,-80.9420,1.5,33.1,1111122 
ENP,ioos.station.NOAA.NDBC:MUKF1:1,2016-03-13T15:00:00Z,25.1060,-80.9420,1.5,33.21,1111122 
ENP,ioos.station.NOAA.NDBC:MUKF1:1,2016-03-13T16:00:00Z,25.1060,-80.9420,1.5,33.33,1111122 
ENP,ioos.station.NOAA.NDBC:MUKF1:1,2016-03-13T17:00:00Z,25.1060,-80.9420,1.5,33.37,1111122 
ENP,ioos.station.NOAA.NDBC:MUKF1:1,2016-03-13T18:00:00Z,25.1060,-80.9420,1.5,33.61,1111122 
ENP,ioos.station.NOAA.NDBC:MUKF1:1,2016-03-13T19:00:00Z,25.1060,-80.9420,1.5,33.66,1111122 
ENP,ioos.station.NOAA.NDBC:MUKF1:1,2016-03-13T20:00:00Z,25.1060,-80.9420,1.5,33.73,1111122 
ENP,ioos.station.NOAA.NDBC:MUKF1:1,2016-03-13T21:00:00Z,25.1060,-80.9420,1.5,33.54,1111122 
ENP,ioos.station.NOAA.NDBC:MUKF1:1,2016-03-13T22:00:00Z,25.1060,-80.9420,1.5,32.55,1111122 
ENP,ioos.station.NOAA.NDBC:MUKF1:1,2016-03-13T23:00:00Z,25.1060,-80.9420,1.5,31.4,1111122 
ENP,ioos.station.NOAA.NDBC:MUKF1:1,2016-03-14T00:00:00Z,25.1060,-80.9420,1.5,30.99,1111122 
ENP,ioos.station.NOAA.NDBC:MUKF1:1,2016-03-14T01:00:00Z,25.1060,-80.9420,1.5,31.05,1111122 
ENP,ioos.station.NOAA.NDBC:MUKF1:1,2016-03-14T03:00:00Z,25.1060,-80.9420,1.5,31.5,1111122 
ENP,ioos.station.NOAA.NDBC:MUKF1:1,2016-03-14T04:00:00Z,25.1060,-80.9420,1.5,31.84,1111122 
ENP,ioos.station.NOAA.NDBC:MUKF1:1,2016-03-14T07:00:00Z,25.1060,-80.9420,1.5,33.01,1111122 
ENP,ioos.station.NOAA.NDBC:MUKF1:1,2016-03-14T08:00:00Z,25.1060,-80.9420,1.5,33.14,1111122 
ENP,ioos.station.NOAA.NDBC:MUKF1:1,2016-03-14T09:00:00Z,25.1060,-80.9420,1.5,33.08,1111122 
ENP,ioos.station.NOAA.NDBC:MUKF1:1,2016-03-14T10:00:00Z,25.1060,-80.9420,1.5,33.22,1111122 
ENP,ioos.station.NOAA.NDBC:MUKF1:1,2016-03-14T11:00:00Z,25.1060,-80.9420,1.5,33.25,1111122 
ENP,ioos.station.NOAA.NDBC:MUKF1:1,2016-03-14T12:00:00Z,25.1060,-80.9420,1.5,32.19,1111122 
ENP,ioos.station.NOAA.NDBC:MUKF1:1,2016-03-14T13:00:00Z,25.1060,-80.9420,1.5,31.82,1111122 
ENP,ioos.station.NOAA.NDBC:MUKF1:1,2016-03-14T14:00:00Z,25.1060,-80.9420,1.5,31.74,1111122 
ENP,ioos.station.NOAA.NDBC:MUKF1:1,2016-03-14T18:00:00Z,25.1060,-80.9420,1.5,33.03,1111122 